This is the latest recevied weather packets stored in our database for station/object IW2MUC-12. If no packets are shown the sender has not sent any weather packets the latest 10 day(s).
| Time | Temp. | Humidity | Pressure | Rain* | Wind** | Luminosity | Snow |
|---|---|---|---|---|---|---|---|
| 1788516253 | 31.11° C | 44% | 993 hPa | - | - | - | - |
| 1788515649 | 30.56° C | 45% | 993 hPa | - | - | - | - |
| 1788515045 | 30° C | 46% | 993 hPa | - | - | - | - |
| 1788513837 | 28.33° C | 47% | 993 hPa | - | - | - | - |
| 1788513233 | 27.78° C | 48% | 993 hPa | - | - | - | - |
| 1788512629 | 27.22° C | 49% | 993 hPa | - | - | - | - |
| 1788512025 | 26.67° C | 53% | 993 hPa | - | - | - | - |
| 1788511421 | 26.11° C | 55% | 993 hPa | - | - | - | - |
| 1788510817 | 25.56° C | 56% | 993 hPa | - | - | - | - |
| 1788510213 | 25° C | 60% | 993 hPa | - | - | - | - |
| 1788509609 | 24.44° C | 62% | 993 hPa | - | - | - | - |
| 1788509005 | 23.33° C | 65% | 993 hPa | - | - | - | - |
| 1788508401 | 22.78° C | 68% | 993 hPa | - | - | - | - |
| 1788507797 | 22.22° C | 71% | 993 hPa | - | - | - | - |
| 1788507193 | 21.67° C | 71% | 993 hPa | - | - | - | - |
| 1788506589 | 21.11° C | 70% | 993 hPa | - | - | - | - |
| 1788505985 | 20.56° C | 69% | 994 hPa | - | - | - | - |
| 1788505381 | 20° C | 68% | 993 hPa | - | - | - | - |
| 1788504778 | 19.44° C | 67% | 994 hPa | - | - | - | - |
| 1788504173 | 18.89° C | 65% | 994 hPa | - | - | - | - |
| 1788503569 | 18.89° C | 64% | 994 hPa | - | - | - | - |
| 1788502965 | 18.33° C | 65% | 994 hPa | - | - | - | - |
| 1788502361 | 18.33° C | 65% | 994 hPa | - | - | - | - |
| 1788501757 | 17.78° C | 66% | 994 hPa | - | - | - | - |
| 1788501145 | 17.78° C | 64% | 994 hPa | - | - | - | - |
* Rain since midnight (hover to see other rain measurements)
** Current wind speed in m/s (hover to see current wind gust speed)